User: anonymous   Login
Location: Unspecified
(0.0000°N, 0.0000°E)
Time: 20:41:11
(UTC+00:00)
Language:

COSMOS 2467 - Orbit

View from above orbital plane
View from above orbital plane
View from above satellite
View from above satellite

Ground track
Ground track

The orbit data is extracted from the following two-line orbital elements,

1 37152U 10043A   17172.87947315 +.00000050 +00000-0 +28732-3 0  9998
2 37152 082.4570 318.0093 0002061 116.9122 243.2183 12.42872961307792
Epoch (UTC): 21 June 2017 21:06:26
Eccentricity: 0.0002061
inclination: 82.4570°
perigee height: 1493 km
apogee height: 1496 km
right ascension of ascending node: 318.0093°
argument of perigee: 116.9122°
revolutions per day: 12.42872961
mean anomaly at epoch: 243.2183°
orbit number at epoch: 30779

The dashed part of the orbit path shows where the satellite is in the earth's shadow,  

DLR